Montgomery, NY

12:07 AM EDT on July 25, 2017 (GMT -0400)
Orange County

Weather History for KMGJ - May, 2013

Change the Weather History Date:

Saturday, May 25, 2013

  Actual Average (KSWF) Record (KSWF)
Temperature  
Mean Temperature 48 °F -  
Max Temperature 52 °F 68 °F 91 °F (1975)
Min Temperature 45 °F 48 °F 39 °F (1983)
Degree Days  
Heating Degree Days 16    
Moisture  
Dew Point 39 °F    
Average Humidity 72    
Maximum Humidity 86    
Minimum Humidity 59    
Precipitation  
Precipitation 0.21 in - - ()
Sea Level Pressure  
Sea Level Pressure 29.94 in    
Wind  
Wind Speed 9 mph (NW)    
Max Wind Speed 24 mph    
Max Gust Speed 33 mph    
Visibility 10 miles    
Events Rain    
Averages and records for this station are not official NWS values.
T = Trace of Precipitation, MM = Missing Value Source: NWS Daily Summary

Daily Weather History Graph

Daily Weather History Graph

Search for Another Location

Airport or City:

Trip Planner

Search our weather history database for the weather conditions in past years. The results will help you decide how hot, cold, wet, or windy it might be!

Date:

Astronomy

May. 25, 2013 Rise Set
Actual Time 5:29 AM EDT 8:19 PM EDT
Civil Twilight 4:56 AM EDT 8:51 PM EDT
Nautical Twilight 4:15 AM EDT 9:33 PM EDT
Astronomical Twilight 3:28 AM EDT 10:20 PM EDT
Moon 9:04 PM EDT 5:54 AM EDT
Length of Visible Light 15h 55m
Length of Day
14h 49m
Full, 100% of the Moon is Illuminated
May 25
Full
May 31
Last Quarter
Jun 8
New
Jun 16
First Quarter
Jun 23
Full

Hourly Weather History & Observations

Time (EDT) Temp. Windchill Dew Point Humidity Pressure Visibility Wind Dir Wind Speed Gust Speed Precip Events Conditions
12:54 AM 46.0 °F 43.9 °F 39.0 °F 76% 29.94 in 10.0 mi WNW 4.6 mph - N/A   Overcast
1:54 AM 46.0 °F 42.5 °F 39.0 °F 76% 29.94 in 10.0 mi NNW 6.9 mph - 0.00 in Rain Light Rain
2:54 AM 45.0 °F 41.8 °F 39.9 °F 82% 29.91 in 10.0 mi NW 5.8 mph - 0.02 in Rain Light Rain
3:54 AM 45.0 °F 42.6 °F 41.0 °F 86% 29.91 in 10.0 mi NW 4.6 mph - 0.01 in Rain Light Rain
4:54 AM 45.0 °F 41.8 °F 39.9 °F 82% 29.91 in 10.0 mi NW 5.8 mph - 0.01 in Rain Light Rain
5:54 AM 45.0 °F 41.8 °F 39.9 °F 82% 29.91 in 10.0 mi NW 5.8 mph - 0.02 in Rain Light Rain
6:54 AM 45.0 °F 41.8 °F 39.9 °F 82% 29.93 in 5.0 mi NW 5.8 mph - 0.04 in Rain Rain
7:54 AM 46.9 °F - 41.0 °F 80% 29.93 in 10.0 mi NNW 3.5 mph - 0.04 in Rain Light Rain
8:54 AM 48.9 °F - 43.0 °F 80% 29.93 in 10.0 mi NNW 10.4 mph - 0.00 in Rain Light Rain
9:54 AM 48.9 °F - 43.0 °F 80% 29.93 in 10.0 mi NNW 11.5 mph - 0.03 in Rain Light Rain
10:54 AM 50.0 °F - 42.1 °F 74% 29.92 in 10.0 mi NW 10.4 mph 19.6 mph 0.02 in Rain Light Rain
11:54 AM 50.0 °F - 41.0 °F 71% 29.93 in 10.0 mi NNW 18.4 mph 32.2 mph 0.02 in Rain Light Rain
12:54 PM 52.0 °F - 39.0 °F 61% 29.92 in 10.0 mi NNW 17.3 mph 29.9 mph 0.00 in   Overcast
1:54 PM 52.0 °F - 37.9 °F 59% 29.93 in 10.0 mi NNW 17.3 mph 33.4 mph N/A   Overcast
2:54 PM 51.1 °F - 39.0 °F 63% 29.94 in 10.0 mi NNW 18.4 mph 33.4 mph N/A   Overcast
3:54 PM 50.0 °F - 39.0 °F 66% 29.95 in 10.0 mi NNW 16.1 mph 26.5 mph N/A   Overcast
4:54 PM 51.1 °F - 37.9 °F 61% 29.96 in 10.0 mi NW 13.8 mph 33.4 mph N/A   Overcast
5:54 PM 50.0 °F - 37.0 °F 61% 29.95 in 10.0 mi NNW 24.2 mph 32.2 mph N/A   Mostly Cloudy
6:54 PM 48.9 °F - 37.9 °F 66% 29.97 in 10.0 mi NW 15.0 mph 26.5 mph N/A   Clear
7:54 PM 50.0 °F - 37.9 °F 63% 29.99 in 10.0 mi NW 9.2 mph 21.9 mph N/A   Mostly Cloudy
8:54 PM 46.9 °F - 39.0 °F 74% 30.00 in 10.0 mi Variable 5.8 mph 18.4 mph 0.00 in Rain Light Rain
9:54 PM 46.9 °F - 37.9 °F 71% 29.99 in 10.0 mi NW 10.4 mph 17.3 mph 0.00 in   Clear
10:54 PM 46.9 °F - 37.0 °F 68% 29.98 in 10.0 mi WNW 11.5 mph 19.6 mph N/A   Clear
11:54 PM 46.0 °F 41.4 °F 36.0 °F 68% 29.99 in 10.0 mi WNW 9.2 mph - N/A   Overcast